sat.trackr.live / text

‹ back to catalog

QIANFAN-56

NORAD 62786 · 2025-016B

PAYLOAD ACTIVE UNKNOWN

§ Identity

Operator
Country
PRC
Launch date
2025-01-23
Launch site
TAISC
Launch vehicle
Mass (kg)
RCS (m²)

External: N2YO · Heavens-Above · Gunter

§ Orbital elements

Epoch: 2026-05-25T04:13:36.341184Z

Period
106.59 min
Inclination
88.9708°
Eccentricity
0.0013757
Mean motion
13.51014126 rev/d
Perigee alt
1,058.3 km
Apogee alt
1,078.8 km
Semi-major
7,446.7 km
B*
1.5100e-4
RAAN
86.0531°
Arg perigee
235.4472°
Mean anomaly
124.5381°
Rev number
6,930

§ Raw data

QIANFAN-561 62786U 25016B   26145.17611506  .00000110  00000+0  15100-3 0  99992 62786  88.9708  86.0531 0013757 235.4472 124.5381 13.51014126 69300

JSON: /api/v1/satellites/62786 · /tle

For live sub-satellite position, see the globe view (requires WebGL).

§ Visibility from observer

Set your observer location to see the next 7 days of passes ≥ 10°. The values pass through the URL so the page stays shareable.

No JS? Fill the form by hand. The geolocation button needs JavaScript.